QPF
0.00 0.00 0.00 0.00 0.00 0.00 0.00 0.00 0.00 0.00 0.00 0.00 0.00 0.00 0.00 0.00 0.00 0.00 0.00 0.00 0.00 0.00 0.00 0.00 0.00 0.00 0.00 0.00 0.00 0.00 0.00 0.00 0.00 0.00 0.00 0.00 0.00 0.00 0.00 0.01 0.10 0.51 0.42 0.11
0.00 0.00 0.00 0.00 0.00 0.00 0.00 0.00 0.00 0.00 0.00 0.00 0.00 0.00 0.00 0.00 0.00 0.00 0.00 0.00 0.00 0.00 0.00 0.00 0.00 0.00 0.00 0.00 0.00 0.00 0.00 0.00 0.00 0.00 0.00 0.00 0.00 0.00 0.00 0.02 0.26 0.23 0.03 0.01
0.00 0.00 0.00 0.00 0.00 0.00 0.00 0.00 0.00 0.00 0.00 0.00 0.00 0.00 0.00 0.00 0.00 0.00 0.00 0.00 0.00 0.00 0.00 0.00 0.00 0.00 0.00 0.00 0.00 0.00 0.00 0.00 0.00 0.00 0.00 0.00 0.00 0.00 0.00 0.14 0.24 0.11 0.06 0.02
0.00 0.00 0.00 0.00 0.00 0.00 0.00 0.00 0.00 0.00 0.00 0.00 0.00 0.00 0.00 0.00 0.00 0.00 0.00 0.00 0.00 0.00 0.00 0.00 0.00 0.00 0.00 0.00 0.00 0.00 0.00 0.00 0.00 0.00 0.00 0.00 0.00 0.00 0.01 0.10 0.12 0.06 0.06 0.01
0.00 0.00 0.00 0.00 0.00 0.00 0.00 0.00 0.00 0.00 0.00 0.00 0.00 0.00 0.00 0.00 0.00 0.00 0.00 0.00 0.03 0.05 0.06 0.01 0.00 0.00 0.00 0.00 0.00 0.00 0.00 0.00 0.00 0.00 0.00 0.00 0.00 0.00 0.01 0.05 0.02 0.02 0.00 0.01
0.00 0.00 0.00 0.00 0.00 0.00 0.00 0.00 0.00 0.00 0.00 0.00 0.00 0.00 0.00 0.00 0.00 0.00 0.00 0.00 0.01 0.02 0.04 0.02 0.01 0.00 0.00 0.00 0.00 0.00 0.00 0.00 0.00 0.00 0.00 0.00 0.00 0.00 0.00 0.01 0.04 0.05 0.02 0.00
0.00 0.00 0.00 0.00 0.00 0.00 0.00 0.00 0.00 0.00 0.00 0.00 0.00 0.00 0.00 0.00 0.00 0.00 0.00 0.00 0.00 0.00 0.00 0.00 0.00 0.00 0.00 0.00 0.00 0.00 0.00 0.00 0.00 0.00 0.00 0.00 0.00 0.00 0.00 0.01 0.08 0.09 0.08 0.05
0.00 0.00 0.00 0.00 0.00 0.00 0.00 0.00 0.00 0.00 0.00 0.00 0.00 0.00 0.00 0.00 0.00 0.00 0.00 0.00 0.00 0.00 0.00 0.00 0.00 0.00 0.00 0.00 0.00 0.00 0.00 0.00 0.00 0.00 0.00 0.00 0.00 0.01 0.01 0.01 0.01 0.02 0.06 0.06
0.00 0.00 0.00 0.00 0.00 0.00 0.00 0.00 0.00 0.00 0.00 0.00 0.00 0.00 0.00 0.00 0.00 0.00 0.00 0.01 0.00 0.01 0.00 0.00 0.00 0.00 0.00 0.00 0.00 0.00 0.00 0.00 0.00 0.00 0.00 0.00 0.00 0.00 0.00 0.01 0.01 0.00 0.00 0.00
0.00 0.00 0.00 0.00 0.00 0.00 0.00 0.00 0.00 0.00 0.01 0.01 0.01 0.01 0.01 0.00 0.00 0.00 0.00 0.00 0.00 0.00 0.00 0.00 0.00 0.00 0.00 0.00 0.00 0.00 0.00 0.00 0.00 0.00 0.00 0.00 0.00 0.00 0.00 0.00 0.00 0.00 0.01 0.01
0.00 0.00 0.00 0.00 0.00 0.00 0.00 0.00 0.00 0.00 0.02 0.01 0.01 0.02 0.01 0.00 0.00 0.00 0.00 0.00 0.00 0.00 0.00 0.00 0.00 0.00 0.00 0.00 0.00 0.00 0.00 0.00 0.00 0.00 0.00 0.00 0.00 0.00 0.00 0.00 0.00 0.00 0.00 0.00
0.00 0.00 0.00 0.00 0.00 0.00 0.00 0.00 0.00 0.00 0.01 0.01 0.01 0.00 0.00 0.00 0.00 0.00 0.00 0.00 0.00 0.00 0.00 0.00 0.00 0.00 0.00 0.00 0.00 0.00 0.00 0.00 0.00 0.00 0.00 0.00 0.00 0.00 0.00 0.00 0.00 0.00 0.00 0.00
0.00 0.00 0.00 0.00 0.00 0.00 0.00 0.00 0.00 0.00 0.01 0.01 0.00 0.00 0.00 0.00 0.00 0.00 0.00 0.00 0.00 0.00 0.00 0.00 0.00 0.00 0.00 0.00 0.00 0.00 0.00 0.00 0.00 0.00 0.00 0.00 0.00 0.00 0.00 0.00 0.00 0.00 0.00 0.00
0.00 0.00 0.00 0.00 0.00 0.00 0.00 0.01 0.00 0.00 0.00 0.00 0.00 0.00 0.00 0.00 0.00 0.00 0.00 0.00 0.00 0.00 0.00 0.00 0.00 0.00 0.00 0.00 0.00 0.00 0.00 0.00 0.00 0.00 0.00 0.00 0.00 0.00 0.00 0.00 0.00 0.00 0.00 0.00
0.00 0.00 0.00 0.00 0.00 0.00 0.00 0.00 0.00 0.00 0.00 0.00 0.00 0.00 0.00 0.00 0.00 0.00 0.00 0.00 0.00 0.00 0.00 0.00 0.00 0.00 0.00 0.00 0.00 0.00 0.00 0.00 0.00 0.00 0.00 0.00 0.00 0.00 0.00 0.00 0.00 0.00 0.00 0.00
0.00 0.00 0.00 0.00 0.00 0.00 0.00 0.00 0.00 0.00 0.00 0.00 0.00 0.00 0.00 0.00 0.00 0.00 0.00 0.00 0.00 0.00 0.00 0.00 0.00 0.00 0.00 0.00 0.00 0.00 0.00 0.00 0.00 0.00 0.00 0.00 0.00 0.00 0.00 0.00 0.00 0.00 0.00 0.00
0.00 0.00 0.00 0.00 0.00 0.00 0.00 0.00 0.00 0.00 0.00 0.00 0.00 0.00 0.00 0.00 0.00 0.00 0.00 0.00 0.00 0.00 0.00 0.00 0.00 0.00 0.00 0.00 0.00 0.00 0.00 0.00 0.00 0.00 0.00 0.01 0.01 0.01 0.00 0.00 0.00 0.00 0.00 0.00
0.00 0.00 0.00 0.00 0.00 0.00 0.00 0.00 0.00 0.00 0.00 0.00 0.00 0.00 0.00 0.00 0.00 0.00 0.00 0.00 0.00 0.00 0.00 0.00 0.00 0.00 0.00 0.00 0.00 0.00 0.00 0.00 0.00 0.00 0.00 0.01 0.01 0.01 0.02 0.01 0.00 0.00 0.00 0.00
0.00 0.00 0.00 0.00 0.00 0.00 0.00 0.00 0.00 0.00 0.00 0.00 0.00 0.00 0.00 0.00 0.00 0.00 0.00 0.00 0.00 0.00 0.00 0.00 0.00 0.00 0.00 0.00 0.00 0.00 0.00 0.00 0.00 0.00 0.00 0.00 0.01 0.02 0.03 0.03 0.02 0.01 0.01 0.00
0.00 0.00 0.00 0.00 0.00 0.00 0.00 0.00 0.00 0.00 0.00 0.00 0.00 0.00 0.00 0.00 0.00 0.00 0.00 0.00 0.00 0.00 0.00 0.00 0.00 0.00 0.00 0.00 0.00 0.00 0.00 0.00 0.00 0.00 0.00 0.00 0.00 0.01 0.01 0.01 0.02 0.03 0.02 0.01
0.00 0.00 0.00 0.00 0.00 0.00 0.00 0.00 0.00 0.00 0.00 0.00 0.00 0.00 0.00 0.00 0.00 0.00 0.00 0.00 0.00 0.00 0.00 0.00 0.00 0.00 0.00 0.00 0.00 0.00 0.00 0.00 0.00 0.00 0.00 0.00 0.00 0.00 0.00 0.01 0.02 0.02 0.02 0.02
0.00 0.00 0.00 0.00 0.00 0.00 0.00 0.00 0.00 0.00 0.00 0.00 0.00 0.00 0.00 0.00 0.00 0.00 0.00 0.00 0.00 0.00 0.00 0.00 0.00 0.00 0.00 0.00 0.00 0.00 0.00 0.00 0.00 0.00 0.00 0.00 0.00 0.00 0.00 0.00 0.00 0.01 0.02 0.02
0.00 0.00 0.00 0.00 0.00 0.00 0.00 0.00 0.00 0.00 0.00 0.00 0.00 0.00 0.00 0.00 0.00 0.00 0.00 0.00 0.00 0.00 0.00 0.00 0.00 0.00 0.00 0.00 0.00 0.00 0.00 0.00 0.00 0.00 0.00 0.00 0.00 0.00 0.00 0.00 0.00 0.00 0.00 0.00
0.00 0.00 0.00 0.00 0.00 0.00 0.00 0.00 0.00 0.00 0.00 0.00 0.00 0.00 0.00 0.00 0.00 0.00 0.00 0.00 0.00 0.00 0.00 0.00 0.00 0.00 0.00 0.00 0.00 0.00 0.00 0.00 0.00 0.00 0.00 0.00 0.00 0.00 0.00 0.00 0.00 0.00 0.00 0.00
0.00 0.00 0.00 0.00 0.00 0.00 0.00 0.00 0.00 0.00 0.00 0.00 0.00 0.00 0.00 0.00 0.00 0.00 0.00 0.00 0.00 0.00 0.00 0.00 0.00 0.00 0.00 0.00 0.00 0.00 0.00 0.00 0.00 0.00 0.00 0.00 0.00 0.00 0.00 0.00 0.00 0.00 0.00 0.00
0.00 0.00 0.00 0.00 0.00 0.00 0.00 0.00 0.00 0.00 0.00 0.00 0.00 0.00 0.00 0.00 0.00 0.00 0.00 0.00 0.00 0.00 0.00 0.00 0.00 0.00 0.00 0.00 0.00 0.00 0.00 0.00 0.00 0.00 0.00 0.00 0.00 0.00 0.00 0.00 0.00 0.00 0.00 0.00
0.00 0.00 0.00 0.00 0.00 0.00 0.00 0.00 0.00 0.00 0.00 0.00 0.00 0.00 0.00 0.00 0.00 0.00 0.00 0.00 0.00 0.00 0.00 0.00 0.00 0.00 0.00 0.00 0.00 0.00 0.00 0.00 0.00 0.00 0.00 0.00 0.00 0.00 0.00 0.00 0.00 0.00 0.00 0.00
MSLP
1002.33 1002.29 1002.80 1002.31 1002.77 1002.89 1002.69 1002.41 1002.14 1002.40 1003.07 1004.13 1005.24 1006.09 1006.87 1007.55 1008.13 1008.54 1008.72 1009.23 1009.85 1009.88 1010.06 1010.13 1009.91 1009.79 1009.95 1009.75 1009.76 1009.76 1010.12 1010.18 1010.50 1010.89 1011.09 1011.38 1011.71 1012.34 1012.85 1013.56 1014.21 1014.64 1013.87 1013.59
1002.24 1002.47 1002.92 1002.75 1002.42 1002.44 1002.82 1002.75 1002.70 1003.18 1003.67 1005.34 1006.68 1007.56 1007.94 1008.43 1009.15 1009.71 1010.17 1010.58 1010.99 1011.16 1011.16 1011.05 1011.06 1010.54 1010.55 1010.28 1010.02 1010.19 1010.40 1010.46 1010.67 1010.99 1011.21 1011.32 1011.79 1012.09 1012.57 1013.41 1013.50 1013.57 1013.15 1012.08
1001.69 1002.46 1002.92 1002.96 1002.61 1002.82 1002.93 1003.40 1003.74 1003.60 1004.17 1006.52 1007.69 1008.45 1009.05 1009.54 1010.17 1010.76 1011.19 1011.54 1011.59 1011.84 1011.40 1011.38 1012.42 1011.32 1011.38 1011.28 1010.87 1010.68 1010.77 1010.81 1010.92 1011.06 1011.01 1011.01 1011.34 1011.63 1012.08 1012.86 1013.01 1013.16 1012.62 1011.99
1001.49 1002.51 1002.76 1002.74 1003.41 1003.23 1003.53 1004.43 1005.33 1005.67 1006.50 1007.33 1008.71 1009.82 1010.57 1010.98 1011.43 1011.87 1012.28 1012.42 1012.30 1012.10 1011.64 1012.23 1012.74 1012.80 1012.78 1012.29 1012.23 1011.71 1011.35 1011.21 1011.15 1011.12 1010.94 1010.80 1010.91 1010.99 1011.55 1012.19 1012.63 1013.00 1012.86 1012.27
1002.27 1002.48 1003.35 1004.08 1004.26 1004.11 1004.12 1005.02 1005.99 1006.26 1007.59 1008.98 1010.16 1011.20 1012.07 1012.53 1012.62 1012.89 1013.15 1013.36 1013.66 1013.64 1013.83 1014.53 1014.00 1014.06 1013.23 1012.85 1012.64 1012.53 1012.55 1012.24 1011.67 1011.22 1010.97 1010.69 1010.54 1010.52 1010.80 1011.78 1012.21 1012.30 1011.80 1012.07
1002.73 1002.54 1003.23 1002.73 1004.61 1005.44 1004.87 1004.81 1006.30 1006.78 1008.37 1009.44 1010.08 1010.13 1012.40 1013.02 1013.31 1013.61 1013.90 1014.15 1014.19 1014.23 1014.25 1014.36 1014.56 1014.13 1013.75 1013.37 1012.99 1013.07 1013.13 1013.07 1012.56 1011.54 1011.11 1010.74 1010.39 1010.15 1010.36 1011.25 1011.55 1011.86 1011.52 1011.56
1003.19 1003.72 1005.12 1006.01 1006.83 1006.86 1006.03 1006.02 1006.38 1007.43 1008.83 1009.65 1010.23 1010.18 1012.94 1013.74 1014.32 1014.65 1014.85 1015.07 1014.96 1014.99 1015.19 1015.41 1015.27 1014.78 1014.29 1014.08 1013.86 1013.88 1013.83 1013.33 1013.00 1012.40 1011.66 1010.93 1010.60 1010.15 1010.15 1010.97 1011.34 1011.41 1011.04 1010.87
1003.79 1005.10 1006.92 1008.61 1008.10 1007.45 1007.46 1007.54 1007.58 1008.48 1009.61 1010.84 1011.97 1012.99 1013.88 1014.62 1015.12 1015.51 1015.76 1015.89 1016.05 1015.81 1015.76 1015.70 1015.88 1015.69 1015.25 1014.98 1015.11 1014.72 1014.25 1013.74 1013.32 1012.85 1011.95 1011.46 1011.20 1010.53 1010.26 1010.54 1010.65 1010.64 1010.70 1010.74
1007.21 1007.93 1009.54 1009.46 1009.08 1008.95 1008.92 1009.42 1010.04 1010.82 1011.63 1012.34 1013.00 1013.94 1014.63 1015.26 1015.83 1016.37 1016.62 1016.72 1016.73 1016.51 1016.71 1016.56 1016.37 1016.43 1015.92 1015.92 1015.72 1015.26 1014.34 1013.86 1013.53 1013.09 1012.23 1011.69 1011.04 1010.72 1010.48 1010.02 1010.14 1009.94 1009.57 1009.27
1008.26 1010.45 1010.74 1010.82 1010.92 1011.15 1011.34 1011.65 1012.15 1012.70 1013.14 1013.61 1014.17 1014.86 1015.43 1015.91 1016.22 1016.62 1017.10 1017.23 1017.25 1017.09 1017.09 1016.70 1016.76 1016.75 1016.39 1016.12 1016.04 1015.19 1014.18 1013.89 1013.56 1013.13 1012.65 1011.78 1011.05 1010.09 1010.10 1009.88 1010.26 1010.33 1010.20 1009.34
1010.06 1011.52 1012.15 1012.70 1012.95 1013.30 1013.55 1013.81 1014.16 1014.57 1014.95 1015.33 1015.63 1016.22 1016.30 1016.76 1017.28 1017.41 1017.75 1017.74 1017.73 1017.63 1017.39 1017.43 1017.37 1016.73 1016.34 1016.52 1015.78 1014.81 1014.39 1013.99 1013.53 1012.94 1012.63 1011.97 1011.10 1010.52 1010.48 1010.45 1010.90 1010.93 1010.81 1010.76
1008.82 1011.35 1011.57 1013.60 1014.44 1014.73 1014.86 1015.17 1015.52 1015.88 1016.43 1016.93 1017.30 1017.27 1017.61 1017.83 1018.21 1018.38 1018.30 1018.38 1018.27 1018.31 1018.21 1018.21 1017.74 1017.36 1017.23 1017.03 1016.38 1016.08 1015.32 1014.44 1013.90 1013.46 1012.77 1011.69 1011.13 1010.65 1010.44 1010.55 1010.75 1010.76 1010.88 1010.95
1010.64 1012.25 1013.48 1014.62 1015.27 1015.83 1016.04 1016.47 1016.88 1017.16 1017.53 1017.83 1018.13 1018.21 1018.31 1018.39 1019.12 1019.35 1019.11 1018.99 1018.86 1018.92 1018.74 1018.51 1018.31 1018.32 1017.84 1017.44 1016.91 1016.75 1016.22 1015.11 1014.31 1013.31 1012.57 1011.87 1011.36 1010.86 1010.22 1009.76 1009.93 1010.08 1010.31 1010.30
1012.84 1013.73 1014.57 1015.28 1016.13 1016.87 1017.37 1017.95 1018.39 1018.65 1018.88 1019.12 1019.30 1019.21 1019.10 1019.16 1019.43 1019.43 1019.51 1019.36 1019.16 1019.12 1019.14 1019.35 1019.15 1018.70 1018.35 1017.85 1017.42 1016.90 1015.93 1015.12 1014.69 1014.31 1013.18 1012.10 1011.44 1011.04 1010.45 1009.61 1009.08 1009.02 1008.89 1009.13
1013.58 1013.62 1014.87 1016.05 1016.91 1017.53 1018.02 1018.50 1018.87 1019.30 1019.62 1019.56 1019.92 1019.79 1019.50 1019.56 1019.80 1020.18 1020.25 1019.86 1019.51 1019.55 1019.88 1019.89 1019.61 1019.23 1019.01 1018.64 1018.01 1016.94 1015.99 1015.51 1015.38 1014.68 1013.81 1012.98 1011.75 1010.92 1010.23 1009.43 1008.82 1008.24 1008.17 1008.27
1014.66 1015.26 1015.97 1016.68 1017.44 1017.94 1018.31 1018.62 1018.93 1019.40 1019.80 1019.82 1020.28 1020.21 1020.18 1020.07 1020.42 1020.79 1020.90 1020.56 1020.54 1020.62 1020.68 1020.55 1020.23 1019.97 1019.55 1018.86 1018.21 1017.43 1016.69 1016.26 1015.67 1014.75 1014.09 1013.04 1012.00 1011.12 1010.40 1009.91 1009.44 1008.68 1008.04 1007.68
1015.02 1015.85 1016.51 1017.15 1017.80 1018.40 1018.95 1019.38 1019.73 1020.14 1020.41 1020.45 1020.63 1020.63 1020.46 1020.57 1020.93 1021.12 1021.34 1021.11 1021.06 1020.97 1021.03 1020.89 1020.66 1020.20 1019.64 1019.03 1018.40 1017.56 1016.64 1015.89 1015.60 1014.91 1014.30 1013.61 1012.47 1011.60 1010.62 1009.72 1009.03 1008.72 1008.39 1007.94
1015.77 1016.33 1017.16 1017.82 1018.44 1019.00 1019.55 1019.96 1020.28 1020.59 1020.78 1020.93 1020.97 1020.97 1021.00 1021.08 1021.09 1021.11 1021.20 1021.03 1021.10 1020.94 1020.99 1020.97 1020.76 1020.27 1019.72 1019.03 1018.32 1017.35 1016.78 1016.35 1015.89 1015.38 1014.74 1014.03 1013.17 1012.16 1011.05 1010.47 1009.57 1008.76 1008.16 1007.86
1017.07 1017.59 1018.29 1018.75 1019.20 1019.60 1019.98 1020.30 1020.64 1020.95 1021.20 1021.27 1021.34 1021.39 1021.48 1021.46 1021.36 1021.26 1021.16 1020.87 1020.83 1020.68 1020.79 1020.80 1020.55 1019.92 1019.57 1019.15 1018.61 1017.95 1017.64 1017.26 1016.63 1016.00 1015.31 1014.69 1013.96 1013.17 1011.78 1010.98 1009.99 1009.45 1008.82 1008.08
1018.03 1018.65 1019.23 1019.61 1019.92 1020.19 1020.47 1020.75 1021.09 1021.39 1021.58 1021.62 1021.71 1021.79 1021.86 1021.83 1021.76 1021.54 1021.19 1020.91 1021.05 1021.26 1020.60 1020.36 1019.99 1019.65 1019.36 1019.24 1018.67 1018.09 1017.84 1017.45 1017.13 1016.73 1016.23 1015.63 1015.00 1014.24 1013.31 1012.42 1011.69 1010.61 1009.35 1008.46
1018.64 1019.08 1019.61 1019.98 1020.51 1020.81 1020.95 1021.20 1021.47 1021.76 1022.04 1022.09 1022.06 1022.09 1022.07 1022.00 1021.85 1021.69 1021.28 1020.83 1021.13 1021.34 1020.51 1020.24 1020.18 1020.00 1019.24 1019.15 1018.59 1018.35 1018.21 1017.76 1017.39 1017.06 1016.63 1016.22 1015.72 1015.21 1014.56 1013.82 1013.07 1012.23 1011.37 1010.19
1018.96 1019.36 1019.66 1020.44 1020.99 1021.12 1021.26 1021.41 1021.71 1021.92 1022.08 1022.19 1022.22 1022.16 1021.81 1021.63 1021.44 1021.22 1021.36 1021.46 1020.90 1021.44 1020.47 1020.18 1020.54 1020.63 1019.87 1019.13 1018.23 1017.99 1018.02 1017.86 1017.60 1017.41 1016.84 1016.55 1016.28 1015.85 1015.31 1014.68 1014.00 1013.18 1012.57 1011.69
1019.01 1019.53 1019.71 1020.40 1020.84 1021.01 1021.29 1021.43 1021.65 1021.78 1021.84 1021.89 1021.85 1021.78 1021.49 1021.30 1021.06 1020.87 1020.65 1020.94 1020.87 1021.04 1020.58 1020.04 1020.92 1020.66 1019.74 1018.51 1018.02 1017.62 1017.38 1017.43 1017.31 1017.44 1017.00 1016.89 1016.65 1016.32 1015.82 1015.28 1014.72 1014.12 1013.45 1012.76
1018.89 1019.26 1019.69 1020.19 1020.47 1020.71 1020.97 1021.28 1021.13 1021.38 1021.56 1021.58 1021.64 1021.59 1021.55 1020.96 1020.59 1020.39 1020.52 1020.65 1020.78 1020.93 1020.33 1020.14 1020.30 1020.23 1019.64 1018.39 1018.00 1017.58 1017.30 1017.17 1017.10 1016.91 1016.77 1016.98 1017.06 1016.67 1016.18 1015.69 1015.11 1014.57 1013.96 1013.38
1018.63 1019.12 1019.62 1019.80 1020.09 1020.17 1020.51 1020.65 1020.89 1020.87 1020.87 1020.88 1020.85 1020.71 1020.64 1020.41 1020.58 1020.49 1020.50 1020.21 1020.03 1020.13 1019.76 1019.39 1019.58 1019.54 1018.63 1018.16 1017.95 1017.50 1017.23 1016.91 1017.09 1016.75 1016.19 1016.05 1016.19 1016.41 1016.48 1016.06 1015.56 1015.12 1014.52 1013.87
1018.80 1018.65 1018.94 1019.47 1019.25 1019.36 1019.68 1019.96 1019.90 1019.83 1019.99 1019.85 1019.76 1019.63 1019.67 1019.76 1019.61 1019.75 1019.68 1019.79 1019.52 1019.42 1018.88 1018.71 1018.48 1018.51 1018.09 1017.72 1017.75 1017.13 1016.87 1016.62 1016.60 1016.45 1016.08 1015.75 1015.58 1015.40 1015.37 1015.51 1015.47 1015.14 1014.61 1014.16
1018.22 1018.33 1018.53 1019.05 1019.27 1019.28 1019.37 1019.47 1019.48 1019.38 1019.46 1019.42 1019.32 1019.26 1019.28 1019.34 1019.27 1019.52 1019.42 1019.06 1018.94 1018.76 1018.52 1018.33 1018.15 1017.85 1017.76 1017.47 1017.04 1016.73 1016.40 1016.12 1016.18 1016.28 1015.78 1015.51 1015.29 1015.09 1014.89 1014.67 1014.46 1014.34 1014.24 1014.02
Thickness
5819 5824 5821 5825 5819 5823 5819 5832 5824 5840 5836 5834 5836 5835 5837 5839 5837 5835 5835 5832 5829 5832 5833 5836 5840 5843 5844 5846 5846 5846 5839 5837 5831 5828 5826 5821 5817 5809 5805 5798 5790 5781 5771 5768
5801 5816 5812 5806 5821 5824 5822 5828 5831 5833 5831 5835 5831 5829 5828 5829 5825 5821 5819 5818 5818 5819 5821 5821 5826 5833 5835 5838 5841 5840 5834 5831 5828 5823 5820 5818 5811 5808 5804 5794 5792 5791 5792 5794
5787 5807 5801 5784 5809 5813 5819 5825 5822 5814 5832 5822 5813 5813 5815 5817 5816 5811 5809 5809 5811 5810 5816 5819 5811 5824 5824 5827 5834 5834 5830 5828 5825 5821 5818 5816 5810 5807 5801 5791 5792 5789 5790 5791
5796 5793 5755 5804 5819 5823 5814 5811 5810 5810 5811 5815 5807 5805 5806 5808 5804 5801 5800 5800 5803 5808 5812 5805 5803 5806 5812 5817 5816 5821 5822 5821 5820 5817 5815 5813 5809 5808 5801 5796 5789 5781 5780 5784
5772 5780 5786 5786 5798 5802 5799 5795 5805 5807 5803 5797 5794 5789 5782 5791 5796 5794 5794 5794 5790 5792 5791 5784 5792 5796 5805 5808 5809 5808 5805 5806 5810 5812 5810 5810 5808 5807 5804 5793 5789 5788 5790 5784
5782 5775 5759 5813 5807 5808 5815 5789 5805 5809 5794 5789 5793 5786 5772 5784 5787 5787 5788 5787 5787 5788 5791 5789 5786 5795 5796 5798 5801 5798 5796 5794 5797 5805 5805 5804 5805 5806 5803 5793 5789 5786 5785 5784
5779 5777 5777 5788 5788 5796 5772 5787 5807 5804 5794 5791 5786 5799 5778 5778 5775 5777 5777 5776 5780 5780 5777 5776 5779 5784 5785 5785 5785 5787 5786 5787 5787 5791 5794 5799 5798 5801 5801 5790 5784 5780 5783 5783
5785 5773 5759 5764 5776 5773 5784 5795 5800 5796 5788 5777 5772 5769 5766 5764 5763 5763 5762 5763 5765 5766 5766 5768 5767 5768 5770 5771 5771 5774 5776 5776 5776 5779 5784 5787 5787 5790 5792 5788 5785 5783 5778 5775
5752 5748 5746 5761 5768 5779 5784 5776 5774 5770 5768 5764 5759 5755 5754 5752 5751 5749 5749 5749 5752 5753 5751 5753 5754 5752 5754 5756 5759 5760 5766 5766 5766 5768 5774 5777 5781 5780 5781 5787 5783 5783 5784 5784
5747 5729 5737 5747 5755 5758 5760 5757 5758 5756 5753 5752 5745 5744 5742 5741 5741 5741 5738 5738 5740 5739 5740 5741 5742 5741 5744 5747 5748 5751 5757 5756 5756 5758 5760 5767 5773 5782 5780 5780 5773 5771 5769 5775
5719 5718 5723 5726 5730 5733 5735 5737 5735 5735 5732 5730 5730 5725 5728 5728 5726 5728 5726 5727 5728 5727 5729 5728 5728 5734 5736 5733 5739 5745 5746 5746 5748 5751 5751 5756 5763 5768 5767 5768 5763 5762 5760 5757
5729 5719 5725 5710 5713 5716 5717 5718 5719 5717 5713 5712 5711 5712 5713 5713 5712 5712 5713 5713 5714 5713 5713 5711 5715 5717 5718 5719 5724 5723 5727 5733 5735 5736 5741 5751 5755 5757 5758 5755 5752 5749 5748 5747
5715 5711 5705 5700 5700 5701 5702 5702 5702 5702 5701 5699 5700 5701 5702 5703 5696 5695 5698 5699 5699 5698 5698 5699 5701 5698 5704 5706 5708 5706 5707 5716 5722 5729 5734 5738 5742 5744 5745 5751 5746 5745 5740 5739
5695 5690 5685 5687 5682 5685 5685 5683 5681 5682 5682 5681 5681 5685 5688 5688 5688 5687 5685 5687 5689 5688 5686 5682 5683 5686 5689 5692 5692 5694 5700 5704 5708 5709 5719 5726 5730 5731 5735 5739 5740 5739 5743 5740
5683 5691 5681 5676 5672 5671 5672 5671 5669 5665 5665 5667 5666 5670 5674 5674 5673 5670 5670 5673 5676 5674 5668 5667 5668 5671 5672 5673 5675 5681 5688 5690 5689 5694 5701 5706 5716 5721 5725 5729 5731 5734 5734 5731
5667 5666 5664 5661 5659 5660 5661 5662 5661 5658 5657 5659 5655 5657 5657 5660 5658 5655 5653 5656 5653 5651 5649 5650 5652 5653 5655 5658 5661 5665 5669 5670 5675 5682 5686 5693 5700 5704 5708 5709 5709 5715 5717 5719
5655 5650 5651 5650 5650 5648 5646 5647 5646 5645 5645 5646 5646 5647 5649 5647 5643 5641 5637 5639 5637 5637 5635 5635 5635 5637 5640 5643 5646 5652 5657 5661 5661 5666 5669 5673 5681 5684 5690 5695 5698 5698 5699 5701
5650 5649 5645 5642 5639 5637 5635 5635 5635 5634 5633 5634 5634 5634 5633 5631 5630 5629 5627 5627 5624 5624 5621 5620 5620 5622 5624 5628 5631 5637 5640 5642 5644 5646 5649 5652 5658 5665 5671 5673 5678 5683 5687 5686
5632 5630 5629 5628 5628 5627 5626 5625 5624 5623 5622 5622 5621 5620 5619 5618 5617 5616 5615 5615 5612 5610 5608 5605 5605 5608 5608 5609 5611 5615 5615 5616 5618 5622 5628 5631 5634 5638 5649 5653 5660 5662 5667 5671
5617 5616 5614 5614 5615 5615 5614 5613 5612 5610 5610 5609 5608 5605 5603 5601 5600 5600 5601 5601 5598 5593 5596 5595 5595 5595 5594 5592 5594 5597 5596 5597 5597 5598 5600 5603 5606 5610 5617 5622 5628 5636 5647 5654
5605 5605 5604 5604 5601 5601 5603 5603 5600 5597 5595 5595 5594 5591 5590 5588 5587 5586 5586 5588 5583 5578 5583 5582 5579 5578 5581 5578 5580 5578 5576 5577 5578 5578 5579 5580 5581 5582 5585 5590 5595 5601 5608 5620
5598 5595 5594 5591 5590 5591 5593 5593 5590 5588 5586 5584 5582 5580 5581 5580 5579 5578 5573 5569 5572 5563 5570 5569 5562 5557 5561 5563 5568 5566 5561 5560 5559 5557 5560 5560 5559 5559 5561 5564 5567 5572 5578 5586
5592 5590 5592 5586 5583 5584 5584 5584 5581 5580 5578 5576 5574 5572 5572 5571 5570 5567 5566 5562 5561 5555 5557 5558 5545 5543 5547 5555 5555 5555 5553 5548 5545 5541 5542 5540 5539 5539 5541 5543 5545 5548 5551 5556
5589 5588 5586 5582 5581 5579 5576 5575 5577 5573 5570 5568 5565 5563 5561 5563 5563 5563 5560 5555 5550 5545 5547 5544 5538 5534 5534 5543 5542 5541 5539 5536 5532 5530 5528 5521 5518 5519 5521 5522 5525 5527 5530 5533
5586 5582 5578 5578 5576 5576 5573 5572 5568 5568 5567 5565 5563 5562 5560 5560 5555 5554 5551 5550 5547 5541 5541 5539 5533 5528 5533 5533 5530 5528 5526 5525 5518 5517 5518 5516 5511 5505 5501 5501 5503 5504 5508 5512
5577 5580 5579 5575 5577 5576 5573 5570 5569 5570 5567 5566 5566 5564 5562 5559 5558 5553 5550 5545 5543 5539 5540 5537 5534 5528 5527 5524 5519 5519 5517 5514 5510 5506 5504 5503 5500 5499 5495 5490 5487 5487 5490 5492
5579 5578 5577 5572 5570 5570 5569 5568 5566 5566 5565 5565 5563 5561 5558 5555 5553 5547 5544 5544 5541 5537 5535 5531 5528 5525 5520 5516 5514 5511 5508 5505 5498 5492 5493 5491 5489 5487 5485 5483 5482 5479 5476 5475